Temp_Advection
nan nan nan nan nan nan nan nan nan nan nan nan nan nan nan nan nan nan nan nan nan nan nan nan nan nan nan nan nan nan nan nan nan nan nan nan nan nan nan nan nan nan nan nan nan nan nan nan nan nan nan nan nan nan
nan -0 -0 -0 -0 -0 -0 -0 0 0 1 1 0 0 0 0 0 -0 -0 -0 -0 -0 0 0 0 0 0 0 -0 0 -0 -0 0 -0 -0 -0 -0 -0 -0 -0 -0 -0 -0 -0 -0 -0 -0 -1 -0 0 0 -0 -0 nan
nan -0 -0 -0 -0 -0 -0 0 0 0 0 0 0 0 0 0 -0 -0 -0 -0 0 0 0 0 -0 0 0 0 0 0 0 0 0 -0 -0 0 0 -0 0 -0 -0 -0 -0 -0 0 -0 -0 -0 -0 -0 -0 -0 -0 nan
nan -0 -0 -0 -0 0 -0 0 0 0 -0 -0 -0 -0 -0 -0 -0 0 0 0 0 0 0 0 0 0 0 0 0 0 0 0 -0 -0 -0 0 0 -0 0 0 0 -0 -0 -1 -0 -0 -0 -0 -0 -0 -0 -0 -0 nan
nan -0 -0 0 0 0 0 0 -0 0 -0 -0 -0 0 0 -0 -0 0 0 0 0 -0 0 -0 0 0 0 0 0 0 0 0 -0 -0 -0 0 0 0 0 -0 -0 -0 -0 0 0 -0 -0 -1 -0 -0 -0 -0 -0 nan
nan -0 0 0 0 0 0 0 0 0 0 0 -0 -0 -0 0 0 -0 0 -0 -0 -0 0 -0 -0 0 0 0 0 0 0 0 0 0 -0 -0 -0 0 0 -0 -0 -0 -0 -0 -0 -0 -0 -0 -0 -0 -0 -0 -0 nan
nan -0 0 0 0 0 0 0 -0 0 0 -0 0 -0 -0 -0 0 0 -0 -0 -0 -0 0 0 -0 -0 0 0 0 0 0 0 0 0 -0 -0 -0 0 0 0 0 -0 -0 -0 -0 -1 -0 -0 -0 -0 -0 -0 -0 nan
nan -0 0 0 0 0 0 0 0 -0 0 0 0 0 -0 -0 0 -0 0 0 -0 0 0 -0 -0 -0 -0 0 -0 -0 0 0 -0 0 0 0 -0 0 -0 -0 -0 -0 0 0 0 -0 -1 -0 -1 -1 -0 -0 -0 nan
nan -0 -0 0 0 -0 -0 -0 0 0 0 0 -0 0 0 -0 -0 -0 -0 0 0 0 0 -0 -0 0 -0 0 0 0 -0 -0 0 -0 0 0 -0 0 -0 -0 -1 -0 -0 0 -0 -0 -0 -0 -0 -0 -0 -0 -0 nan
nan -0 0 0 0 0 0 -0 -0 0 0 0 0 0 0 -0 0 0 0 0 0 0 -0 -0 -0 -0 0 0 0 0 -0 -0 0 0 -0 0 -0 -0 -0 -0 -0 -0 -0 0 -0 -0 -0 -0 -0 -0 -0 -0 -0 nan
nan 0 0 0 0 0 0 0 0 0 0 -0 -0 0 0 1 0 0 0 -0 -0 -0 0 -0 -0 -0 -0 -0 0 0 0 0 0 0 0 0 0 0 -0 0 0 -0 0 0 0 -0 0 0 -0 0 0 0 -0 nan
nan -0 -0 -0 0 0 0 0 0 0 0 -0 -0 -0 0 0 0 0 0 0 -0 0 0 0 0 -0 0 0 -0 0 0 0 -0 0 0 0 -0 0 0 0 1 1 0 0 0 0 0 0 0 0 0 0 0 nan
nan -0 0 0 -0 0 0 0 0 0 0 0 0 0 -0 -0 0 0 0 0 0 0 0 0 -0 0 0 -0 -0 -0 -0 0 0 0 0 -0 -0 -0 0 0 0 0 0 0 0 0 0 0 0 0 0 0 0 nan
nan 0 0 1 0 -0 0 0 0 0 0 0 -0 0 -0 0 0 -0 -0 -0 0 0 0 -1 -0 0 -0 -0 -0 0 0 0 -0 0 -0 -0 0 0 0 0 0 0 0 0 0 0 0 0 0 0 0 0 0 nan
nan 0 -0 0 1 0 -0 0 0 0 0 0 -0 -0 -0 -0 -0 -0 0 0 0 1 0 -0 -0 -0 -0 -0 0 -0 -0 -0 0 -0 -0 -0 0 0 0 0 1 1 1 1 0 0 0 0 0 0 0 0 0 nan
nan -0 1 0 0 0 0 0 0 0 -0 -0 -0 0 0 -0 -0 -0 0 0 0 0 0 -0 -0 -0 -0 -0 -0 -0 -0 -0 -0 -0 -0 0 0 0 0 0 1 1 1 1 1 1 0 0 0 0 0 0 0 nan
nan -0 0 0 0 0 0 0 -0 0 0 -0 -0 -0 0 -0 -0 0 0 0 -0 0 0 0 -0 0 -0 -0 -0 -0 -0 -0 -0 -0 0 0 0 0 0 0 0 0 0 0 0 0 0 0 0 0 0 0 0 nan
nan -0 0 0 0 0 0 0 0 -0 -0 -0 -0 -0 -0 -0 -0 -0 0 0 0 0 -0 -0 -0 -0 0 0 -0 -0 -0 -0 0 0 0 0 0 0 0 0 0 0 1 1 1 1 0 0 0 0 0 0 0 nan
nan 0 0 0 0 0 -0 -0 -0 -0 -0 0 -0 -0 -0 -0 -0 0 0 0 0 0 0 -0 0 0 -0 -0 -0 -0 -0 -0 -0 -0 0 0 0 0 0 0 0 0 1 1 1 1 0 0 0 0 0 0 0 nan
nan 0 0 0 0 0 -0 -0 -0 0 -0 -0 -0 -0 0 0 0 0 0 0 0 0 -0 0 -0 -0 -0 -0 -0 -0 -0 -1 -1 -1 -0 0 0 0 0 0 0 0 0 0 0 0 0 -0 -0 -0 -0 -0 -0 nan
nan 0 0 0 0 -0 -0 -0 -0 0 -0 -0 -0 0 0 0 0 0 0 0 -0 -0 -0 -0 -0 0 0 0 0 -0 -0 -0 -0 -0 -1 -0 -0 -0 0 0 -0 -0 -0 -0 -0 0 0 0 -0 -0 0 0 0 nan
nan 0 -0 0 -0 -0 -0 -0 0 0 0 -0 -0 0 -0 -0 -0 0 0 0 -0 -0 -0 -0 0 -0 -0 -0 0 -0 0 0 0 -0 -0 -0 -1 -0 -0 -0 -0 -0 -0 -0 -0 -0 0 0 0 0 0 0 1 nan
nan -0 -0 -0 -0 -0 0 0 0 0 -0 -0 -0 0 -0 -0 -0 -0 -0 -0 0 0 0 0 0 0 0 0 0 0 -0 -0 0 0 0 -0 -0 -0 -0 -0 -0 -0 -0 -0 -0 -0 0 0 0 0 1 0 0 nan
nan -0 -0 -0 -0 -0 0 0 0 -0 0 -0 -0 -0 -0 -0 0 -0 -0 -0 -0 0 0 0 0 0 0 0 0 0 0 0 0 0 0 0 0 0 0 0 0 0 0 -0 -0 0 0 0 0 1 0 0 0 nan
nan -0 0 0 0 0 -0 -0 -0 0 -0 0 0 -0 -0 -0 -0 -0 0 -0 -0 0 0 0 0 0 -0 0 0 0 0 0 0 -0 0 0 0 0 0 0 0 0 0 0 0 0 0 0 0 0 0 -0 0 nan
nan 0 0 -0 0 -0 -0 -0 -0 0 0 -0 -0 -0 0 -0 -0 -0 -0 -0 -0 0 0 0 0 0 0 0 0 0 0 0 0 0 0 0 0 0 0 0 0 0 0 0 0 0 0 0 0 0 0 0 0 nan
nan -0 -0 -0 -0 -0 -0 0 0 -0 -0 -0 -0 -0 -0 -0 -0 -0 -0 -0 0 0 -0 0 0 0 0 0 0 0 0 0 0 0 0 0 0 0 0 0 0 0 0 0 0 0 0 0 0 0 0 1 1 nan
nan 0 0 -0 0 -0 -0 -0 0 -0 -0 -0 -0 -0 -0 -0 -0 -0 -0 0 -0 -0 -0 -0 -0 0 0 0 0 0 0 0 0 0 0 0 1 0 0 0 0 0 0 0 0 0 0 0 0 0 0 0 0 nan
nan 0 0 -0 -0 -0 -0 0 0 0 -0 0 0 0 0 -0 0 0 -0 -0 -0 -0 -0 -0 -0 -0 0 0 -0 0 0 0 0 0 0 0 0 0 0 0 0 0 0 0 0 0 0 0 0 0 0 -0 -0 nan
nan 0 -0 -0 -0 0 -0 -0 -0 0 0 0 0 -0 0 -0 0 0 0 0 0 0 0 0 -0 0 0 0 0 0 0 0 0 -0 -0 -0 -0 -0 0 0 0 0 0 0 0 0 0 0 0 0 0 0 0 nan
nan 0 -0 -0 0 -0 0 -0 -0 -0 0 0 -0 0 -0 0 -0 -0 0 1 0 0 0 0 0 0 0 0 0 0 0 -0 -0 -0 -0 0 0 0 -0 0 -0 -0 -0 0 0 0 0 0 0 0 0 0 0 nan
nan -0 -0 0 0 0 -0 0 -0 -0 0 -0 0 0 -0 -0 -0 0 -0 0 1 1 0 0 0 0 0 0 0 0 -0 -0 0 0 0 0 0 0 0 0 0 0 0 0 0 0 0 0 0 0 0 0 0 nan
nan nan nan nan nan nan nan nan nan nan nan nan nan nan nan nan nan nan nan nan nan nan nan nan nan nan nan nan nan nan nan nan nan nan nan nan nan nan nan nan nan nan nan nan nan nan nan nan nan nan nan nan nan nan
Wind_Speed
13 12 10 11 14 17 22 20 22 24 33 31 36 36 29 27 24 31 24 8 5 4 12 11 6 5 15 7 8 16 7 5 5 6 5 3 2 2 4 2 9 7 5 6 6 8 5 8 3 3 5 8 10 8
11 11 11 12 18 20 13 24 24 30 28 37 32 27 27 25 25 26 17 11 4 3 5 10 12 10 9 4 11 20 4 14 8 6 4 1 2 1 6 5 2 2 2 2 5 3 5 9 12 7 6 11 9 10
10 11 13 14 9 15 25 27 24 21 24 24 22 27 26 21 25 20 13 10 6 8 9 4 5 8 5 9 11 8 4 5 2 1 2 0 2 4 5 3 5 4 6 3 6 6 6 8 10 10 11 12 12 11
9 8 11 6 17 30 28 25 25 23 24 25 26 25 24 22 22 19 11 11 6 3 3 7 5 8 6 5 5 5 10 7 6 3 1 1 1 4 3 4 3 2 7 9 5 8 10 7 9 12 14 13 14 13
7 8 12 15 26 27 25 24 23 26 26 22 22 25 25 21 21 11 11 11 3 4 4 10 13 10 9 10 10 9 9 11 9 4 1 2 3 3 2 4 5 4 3 4 1 18 3 16 13 13 14 14 14 15
5 7 15 24 23 25 24 23 26 25 22 21 17 18 16 19 16 10 6 5 5 5 6 4 7 7 9 9 9 8 5 2 1 2 2 4 3 3 2 2 2 8 7 4 6 14 13 18 15 13 15 15 14 14
4 10 23 23 22 21 23 25 25 21 22 20 17 18 17 20 18 7 4 11 13 11 5 5 4 4 3 4 5 5 4 1 2 3 2 4 4 3 2 3 9 10 11 15 19 22 15 17 12 14 15 15 15 14
5 25 25 23 22 24 25 25 22 20 21 14 16 20 24 14 12 3 9 20 12 5 3 2 4 5 5 5 4 1 3 3 4 3 1 1 4 2 2 7 14 13 15 15 16 0 16 15 18 16 15 16 15 14
24 28 27 25 24 26 24 24 21 20 21 20 22 21 17 8 5 6 16 13 5 2 1 4 6 4 4 3 4 2 2 1 0 1 1 1 3 2 7 15 16 17 12 16 9 16 18 19 18 17 16 15 14 14
32 30 28 27 26 26 25 25 24 23 23 25 21 6 5 4 16 16 6 2 2 1 2 3 7 4 7 5 1 3 2 2 3 2 4 1 2 4 11 16 17 17 14 16 20 20 18 17 17 16 14 13 13 13
31 32 31 29 26 25 25 26 24 24 18 8 4 3 11 21 9 2 2 2 3 2 4 6 10 7 9 3 3 2 2 0 2 3 2 3 3 7 10 16 17 15 16 15 14 17 15 15 17 16 15 14 15 14
29 28 28 30 28 25 25 22 22 13 5 5 8 14 11 3 2 2 2 1 4 3 5 6 12 11 4 3 3 1 1 1 1 2 1 2 4 13 13 15 17 16 15 14 16 17 17 16 16 17 17 17 18 17
30 29 30 28 26 26 25 22 11 11 21 15 7 4 3 1 2 4 5 3 4 3 3 13 6 4 4 5 3 1 1 1 2 2 2 3 12 15 18 21 19 19 17 15 17 17 19 18 17 17 19 16 15 16
28 26 27 29 26 24 21 13 16 12 4 3 3 4 1 3 1 3 5 4 3 7 12 14 5 3 3 4 1 1 2 2 2 3 2 5 12 17 20 19 23 19 16 19 22 22 20 18 17 14 13 13 16 17
26 25 29 27 23 20 16 12 10 6 4 3 4 3 3 3 6 6 7 8 4 14 13 8 4 5 2 2 1 2 2 3 3 3 2 13 17 18 19 21 20 19 19 20 20 19 18 16 15 14 14 16 15 15
30 28 25 21 19 19 12 11 6 4 4 4 5 3 5 7 5 8 10 6 5 9 9 4 2 2 2 4 3 3 2 2 3 2 7 15 17 17 18 18 19 19 18 19 18 17 16 16 15 17 18 17 16 14
22 22 20 19 19 14 11 7 4 5 4 3 3 8 8 12 8 8 10 5 4 4 0 2 2 1 1 2 4 1 2 2 5 6 8 13 17 18 18 17 17 17 16 16 17 17 17 17 16 17 19 18 15 13
25 23 18 16 12 8 9 7 5 4 5 6 4 9 13 10 9 6 3 5 2 3 3 3 3 2 1 2 2 3 5 7 7 8 10 14 16 16 16 17 16 15 15 16 16 17 17 17 18 16 17 16 14 12
22 20 16 11 9 5 4 4 4 4 5 6 7 8 8 8 6 4 3 3 4 5 3 4 1 1 2 5 5 6 8 7 11 11 12 12 12 14 14 14 15 14 15 15 16 15 18 16 14 15 15 14 11 11
20 16 10 8 9 3 4 4 4 4 3 4 5 5 4 4 3 3 2 2 3 1 2 1 2 3 3 8 6 7 9 11 14 13 11 12 13 13 13 14 13 14 15 14 14 17 19 15 12 13 14 12 11 11
15 10 10 8 7 8 5 4 4 4 5 5 5 3 4 4 3 3 3 2 1 2 1 5 3 2 4 6 6 7 10 9 8 6 13 15 15 12 13 13 13 14 16 19 19 18 17 17 16 15 16 15 14 13
10 8 5 7 5 5 5 7 5 4 3 6 3 2 4 3 2 2 2 1 2 1 2 2 3 2 5 5 6 5 11 10 8 8 10 12 18 15 16 15 16 17 18 19 19 21 18 17 18 17 17 16 13 12
7 6 5 5 5 4 3 2 3 2 2 3 2 3 2 2 2 1 1 2 2 3 4 2 4 5 5 5 5 6 8 8 8 9 10 10 12 11 15 15 16 18 19 18 18 20 19 19 17 16 17 13 13 10
4 4 4 4 5 3 1 2 2 4 3 2 2 2 3 1 1 1 2 2 3 2 2 6 5 4 4 5 4 4 7 6 8 7 10 11 12 13 13 14 16 17 17 18 19 20 20 18 18 17 14 14 8 8
2 4 3 3 1 2 2 2 2 2 2 2 1 1 2 1 1 1 1 4 3 2 2 3 5 7 5 7 9 7 7 6 5 8 10 9 9 13 13 13 15 17 18 21 21 21 19 19 18 15 15 13 11 11
3 2 3 1 0 0 2 2 2 2 2 1 1 3 1 1 1 2 2 2 0 2 3 4 6 6 7 6 7 5 5 6 6 6 8 9 10 12 14 16 16 18 18 20 20 20 19 20 17 17 15 15 14 14
1 1 1 1 2 1 2 1 3 2 2 2 3 2 1 2 2 3 3 2 1 3 4 6 7 7 7 8 8 8 8 10 9 10 11 11 10 12 14 15 17 17 20 20 20 19 20 20 19 17 19 16 15 14
1 2 1 2 2 2 2 2 4 3 3 2 5 3 2 1 2 3 2 2 3 3 4 7 9 8 8 8 9 9 8 9 10 8 10 11 13 14 14 14 14 13 16 17 16 17 18 19 18 18 15 13 13 12
2 2 3 3 2 2 3 2 3 3 2 3 1 2 1 2 2 3 3 2 1 1 2 4 4 6 7 7 6 5 6 9 9 9 8 9 12 13 13 14 17 15 18 18 17 16 16 15 15 15 14 13 12 10
4 6 4 4 2 3 1 2 2 1 1 2 0 1 1 1 1 3 4 4 4 3 3 4 4 5 5 6 7 7 8 9 8 7 8 9 12 14 18 19 18 17 20 21 20 19 17 15 14 13 12 11 9 7
6 7 4 5 3 1 4 4 2 3 2 1 4 2 2 3 5 7 8 9 8 8 7 7 7 7 7 8 8 9 10 12 12 12 11 9 8 11 17 16 16 17 17 16 16 15 14 14 13 12 11 9 8 7
6 7 5 4 3 1 2 0 1 2 3 2 3 3 2 2 3 5 6 8 10 10 9 8 7 8 10 10 8 9 8 9 13 13 11 10 11 13 16 16 15 14 15 15 14 14 14 13 12 12 10 8 7 6
5 5 2 0 2 2 3 3 3 2 3 3 2 4 3 2 2 4 5 7 10 10 9 9 11 10 9 12 13 12 11 10 12 14 12 9 9 12 15 15 15 15 14 13 13 14 13 12 11 10 9 7 7 6
Wind_Direction
297 300 267 250 257 267 259 245 200 194 190 191 188 184 183 190 196 197 205 181 267 304 58 82 105 128 178 145 150 155 147 174 173 204 216 181 229 173 105 320 174 190 195 206 244 223 195 9 227 284 91 98 96 80
293 299 271 269 279 261 214 172 175 167 171 177 166 172 183 191 186 188 211 211 213 296 81 82 65 53 89 56 207 159 176 172 172 211 223 144 179 110 143 168 140 165 55 71 12 55 91 62 88 100 98 112 108 110
287 288 295 292 236 156 141 144 138 140 147 155 165 178 181 180 177 178 188 161 135 135 100 86 24 32 58 109 125 181 154 145 159 287 334 147 173 183 181 133 135 143 173 88 187 125 112 103 98 107 114 115 114 114
288 291 292 259 160 145 138 141 142 144 148 149 152 161 168 173 169 182 159 167 152 149 126 72 64 56 42 125 118 88 127 146 170 200 218 251 139 33 45 134 126 112 149 127 85 116 122 131 132 127 119 117 113 110
300 287 292 132 152 145 143 144 143 143 146 146 153 163 177 168 150 183 155 179 184 288 115 120 88 72 85 95 105 107 127 145 171 180 199 160 105 88 106 119 111 85 121 189 327 163 63 146 146 140 131 128 122 119
295 277 144 141 133 139 144 141 142 145 148 149 149 140 148 146 152 143 110 210 175 167 121 123 106 100 97 100 102 107 114 98 94 57 54 71 101 141 156 99 108 100 94 106 98 122 131 142 142 141 133 131 126 121
303 171 138 144 144 144 145 142 144 146 145 139 153 163 167 157 168 136 174 168 152 127 103 121 130 152 120 118 112 107 99 48 53 124 45 121 153 243 160 149 157 118 110 113 120 118 127 144 147 144 137 131 126 121
208 153 149 148 145 144 145 146 147 142 137 142 133 139 141 146 118 216 163 157 146 102 141 124 96 146 200 180 123 252 124 141 3 75 168 189 115 272 104 141 129 124 129 140 146 127 152 142 138 140 139 135 130 126
160 153 151 149 149 147 144 144 145 138 137 131 129 132 143 163 134 146 145 148 115 114 139 153 156 138 177 94 113 114 339 93 75 206 155 201 144 205 141 158 146 153 155 153 144 135 141 143 141 144 144 140 135 133
155 159 152 150 150 147 145 140 138 138 135 132 136 133 129 148 130 121 121 106 106 21 321 149 106 130 151 155 58 111 315 171 170 163 88 290 82 120 150 157 154 166 158 158 144 148 149 148 149 151 151 146 144 142
160 152 152 151 145 144 144 146 145 143 135 117 93 78 138 133 113 98 127 170 153 164 162 114 135 131 150 158 152 53 167 127 244 128 226 185 183 140 133 150 160 160 164 162 161 156 156 153 151 150 147 146 147 145
139 141 142 141 144 146 141 147 144 131 149 138 126 119 121 113 128 123 141 151 236 133 165 152 146 127 122 119 92 221 182 202 289 190 238 234 102 128 142 148 154 163 160 159 156 152 151 150 152 150 150 149 166 171
141 139 140 139 140 141 144 140 132 136 119 111 108 98 157 97 157 197 163 196 132 142 171 129 109 122 141 67 41 100 81 152 260 197 218 62 134 132 137 134 138 143 152 150 151 150 146 145 156 165 170 177 176 173
143 143 146 144 141 140 144 143 129 121 91 102 115 103 289 156 142 26 37 77 93 152 137 111 62 69 86 56 292 145 78 237 249 236 105 143 146 143 148 151 148 146 150 156 154 163 166 171 172 175 178 174 167 163
132 135 131 133 136 136 139 147 134 69 69 60 39 66 68 77 73 83 100 116 90 126 124 132 138 102 98 109 140 82 173 227 238 34 63 134 146 153 148 157 160 162 169 168 170 173 176 175 175 173 166 164 163 163
128 124 127 132 132 128 109 107 89 70 65 61 45 105 132 113 106 100 101 83 109 145 146 113 159 102 163 142 171 210 269 17 72 68 119 144 158 159 156 166 169 175 178 178 180 181 177 175 172 168 165 162 163 166
131 129 136 136 134 103 84 94 62 48 48 47 60 22 81 77 69 81 130 129 173 150 94 114 97 84 168 216 170 115 24 70 115 118 145 159 161 163 171 170 167 170 174 176 175 173 170 172 172 165 162 161 164 164
130 128 126 122 112 85 62 59 72 71 61 52 72 58 65 83 97 79 93 23 68 93 34 48 340 68 213 201 103 88 108 106 118 123 144 157 167 174 172 167 167 169 171 169 171 169 173 164 159 160 165 163 163 159
132 131 126 112 110 92 79 49 47 79 65 81 82 81 88 90 82 70 42 30 36 53 106 146 135 188 68 59 92 106 136 142 135 130 143 161 168 163 165 163 163 165 167 166 161 164 158 151 154 166 163 158 158 159
126 119 97 81 73 76 75 66 51 75 81 81 75 57 55 63 93 87 62 60 41 8 205 175 43 53 63 79 89 135 137 144 139 134 140 155 162 166 166 160 160 163 157 156 157 157 148 151 171 162 158 151 164 162
125 93 64 72 55 61 77 82 71 87 95 77 118 110 92 99 88 59 61 116 344 270 65 71 102 195 163 139 104 128 139 141 154 172 173 166 167 168 159 165 177 160 163 159 161 157 159 164 162 167 161 170 179 186
109 64 46 58 65 56 60 39 89 89 76 110 121 62 110 118 127 141 132 179 237 257 57 90 139 138 133 119 124 145 153 164 169 149 170 174 164 174 171 184 165 170 171 170 167 168 167 169 176 178 178 183 192 207
81 42 46 40 66 58 56 15 81 43 103 123 145 128 125 122 72 174 242 231 233 226 198 157 200 180 186 194 151 144 142 132 140 152 166 160 173 180 182 185 177 180 178 178 180 174 175 181 181 183 189 177 192 190
57 56 42 42 46 82 63 40 113 99 108 176 135 127 96 105 97 226 261 110 127 164 158 205 182 171 155 159 153 168 150 161 186 160 163 182 181 186 190 186 184 188 186 180 182 180 181 178 185 188 181 178 184 159
40 22 46 66 37 119 116 119 335 92 123 163 112 102 111 157 242 230 252 114 123 193 197 200 185 187 198 192 193 202 173 178 197 160 175 197 190 180 182 184 187 189 183 184 184 187 185 186 187 182 173 176 180 181
66 21 9 58 318 295 132 138 157 190 110 131 113 60 128 240 237 238 75 86 120 219 231 211 190 191 194 185 194 215 188 165 181 187 174 201 204 194 184 180 182 184 188 193 191 189 189 186 181 183 176 186 189 198
116 105 101 26 2 69 44 12 91 126 174 196 143 170 195 243 207 92 111 73 214 197 164 186 183 185 187 195 189 198 200 173 174 179 181 184 193 192 195 192 187 189 190 194 195 196 191 179 186 182 189 201 200 203
57 181 170 168 183 246 281 198 179 198 210 168 135 193 217 290 38 89 163 61 78 122 135 157 176 189 202 212 221 209 194 178 187 195 190 184 181 183 185 187 193 191 181 184 188 193 185 188 190 197 203 192 188 201
190 177 159 192 238 190 239 233 224 163 43 143 187 199 172 64 158 157 182 192 116 106 137 163 174 180 198 207 196 190 184 183 183 172 168 172 179 184 183 182 183 180 183 180 185 190 192 194 196 201 204 204 204 204
171 169 200 176 220 236 108 22 54 239 130 202 145 347 170 279 236 252 246 242 232 223 218 218 230 200 199 197 197 190 182 172 173 182 193 194 194 186 177 182 186 185 183 186 188 190 196 201 204 203 203 201 202 206
149 176 207 207 221 113 238 277 266 269 268 231 246 224 288 260 289 276 245 241 240 238 235 221 238 213 217 209 209 197 195 199 196 194 201 211 208 194 186 186 186 188 189 191 192 196 195 195 198 198 198 202 206 216
186 194 204 210 173 184 265 221 247 245 217 241 239 216 262 254 243 259 259 241 232 230 230 214 227 227 219 212 211 217 220 209 196 198 196 199 201 191 188 189 190 187 186 188 190 190 193 195 193 195 200 203 214 219
205 196 204 192 199 216 199 212 215 226 217 233 223 215 233 269 323 260 254 242 219 202 203 218 220 226 227 212 211 214 215 204 193 194 197 198 199 196 193 194 194 192 192 191 187 189 189 191 192 196 203 211 214 216
Height
1313 1311 1310 1311 1312 1312 1311 1310 1312 1315 1323 1333 1340 1350 1358 1365 1370 1374 1381 1383 1385 1381 1380 1381 1381 1383 1383 1384 1386 1395 1401 1404 1407 1407 1402 1399 1402 1397 1406 1416 1410 1413 1416 1415 1408 1407 1419 1439 1436 1436 1448 1450 1453 1455
1311 1309 1308 1308 1306 1304 1303 1305 1311 1318 1325 1333 1342 1350 1357 1363 1369 1374 1379 1382 1383 1383 1384 1383 1382 1383 1386 1390 1390 1392 1394 1398 1401 1399 1394 1396 1398 1400 1403 1409 1414 1419 1425 1420 1431 1433 1443 1444 1444 1447 1448 1451 1454 1456
1309 1307 1306 1304 1300 1300 1303 1311 1316 1322 1330 1337 1344 1351 1357 1363 1368 1374 1378 1381 1384 1386 1387 1388 1390 1388 1388 1388 1390 1393 1394 1396 1399 1400 1397 1396 1397 1398 1403 1407 1410 1417 1421 1427 1431 1441 1444 1446 1448 1449 1450 1453 1455 1457
1307 1306 1304 1302 1301 1306 1311 1317 1322 1328 1334 1340 1347 1353 1359 1363 1369 1374 1377 1381 1384 1385 1387 1392 1391 1390 1390 1390 1392 1394 1394 1397 1399 1400 1399 1398 1398 1401 1405 1405 1408 1411 1417 1427 1437 1441 1445 1447 1449 1451 1452 1455 1456 1459
1306 1305 1303 1301 1307 1312 1318 1322 1328 1333 1339 1344 1349 1354 1359 1364 1370 1375 1377 1380 1382 1387 1385 1392 1393 1394 1394 1394 1395 1396 1397 1398 1399 1400 1399 1399 1402 1404 1405 1407 1413 1416 1422 1423 1421 1430 1436 1444 1449 1451 1453 1455 1458 1460
1306 1304 1302 1308 1313 1318 1323 1328 1333 1338 1343 1348 1352 1357 1362 1367 1373 1375 1379 1382 1383 1384 1387 1390 1397 1397 1397 1398 1398 1399 1399 1399 1398 1398 1399 1401 1405 1407 1407 1411 1421 1422 1425 1426 1430 1433 1438 1444 1449 1452 1454 1457 1459 1462
1305 1305 1308 1314 1319 1323 1328 1333 1338 1343 1347 1352 1357 1361 1366 1371 1374 1377 1379 1381 1383 1384 1387 1392 1396 1399 1399 1400 1400 1401 1401 1400 1399 1400 1400 1401 1405 1407 1407 1410 1421 1425 1428 1430 1432 1436 1444 1446 1449 1452 1455 1458 1461 1463
1306 1309 1314 1319 1324 1328 1333 1338 1343 1347 1351 1356 1360 1363 1369 1374 1375 1378 1378 1381 1384 1385 1387 1387 1395 1399 1400 1399 1400 1401 1401 1401 1402 1402 1404 1401 1406 1406 1409 1420 1423 1427 1430 1433 1436 1438 1441 1445 1450 1454 1456 1459 1462 1465
1308 1313 1319 1324 1328 1333 1338 1343 1348 1352 1357 1360 1364 1369 1374 1375 1377 1378 1381 1384 1385 1389 1386 1389 1392 1395 1399 1399 1400 1401 1400 1403 1405 1402 1402 1406 1406 1409 1410 1418 1424 1428 1431 1434 1437 1440 1444 1447 1450 1455 1458 1460 1463 1466
1312 1318 1323 1329 1334 1338 1343 1348 1352 1357 1361 1365 1369 1370 1374 1375 1377 1381 1386 1386 1387 1387 1386 1387 1389 1394 1399 1398 1401 1403 1402 1400 1404 1404 1406 1407 1407 1411 1412 1417 1423 1429 1431 1434 1437 1441 1445 1449 1452 1455 1458 1461 1463 1466
1316 1320 1327 1333 1338 1343 1348 1352 1357 1361 1363 1366 1369 1373 1374 1378 1380 1383 1385 1386 1387 1387 1386 1387 1391 1393 1398 1399 1399 1400 1400 1401 1400 1403 1404 1406 1405 1412 1416 1420 1424 1429 1432 1436 1439 1442 1446 1449 1452 1455 1459 1461 1464 1466
1322 1328 1333 1338 1343 1348 1353 1357 1362 1365 1367 1368 1370 1375 1378 1382 1383 1385 1385 1386 1383 1383 1387 1388 1391 1395 1397 1398 1401 1403 1400 1403 1402 1405 1404 1402 1413 1415 1419 1422 1426 1430 1433 1437 1440 1443 1446 1450 1453 1455 1458 1461 1462 1465
1329 1334 1339 1344 1349 1353 1358 1362 1365 1367 1369 1372 1375 1378 1380 1384 1384 1381 1386 1381 1383 1386 1387 1389 1393 1397 1400 1401 1404 1405 1407 1405 1406 1407 1402 1409 1415 1418 1421 1423 1427 1431 1435 1438 1442 1444 1446 1449 1453 1455 1456 1460 1463 1466
1336 1341 1345 1350 1355 1359 1363 1365 1368 1370 1372 1374 1376 1381 1380 1382 1381 1381 1380 1381 1387 1387 1388 1392 1397 1399 1401 1406 1406 1406 1409 1408 1406 1399 1401 1412 1417 1419 1422 1425 1428 1432 1436 1438 1441 1443 1446 1449 1451 1455 1458 1460 1463 1466
1342 1346 1351 1356 1361 1364 1367 1369 1371 1372 1374 1376 1377 1379 1382 1385 1386 1387 1387 1388 1389 1390 1392 1396 1398 1401 1404 1408 1408 1408 1410 1406 1399 1401 1410 1415 1418 1421 1423 1426 1430 1433 1436 1439 1442 1444 1446 1449 1452 1454 1458 1461 1464 1467
1349 1353 1358 1362 1365 1368 1370 1372 1374 1375 1377 1380 1383 1384 1386 1386 1389 1389 1390 1391 1392 1393 1395 1397 1399 1401 1403 1402 1405 1403 1398 1397 1407 1413 1415 1417 1419 1422 1425 1428 1431 1434 1436 1439 1441 1444 1447 1449 1452 1455 1458 1462 1465 1468
1355 1358 1364 1367 1369 1371 1373 1375 1376 1379 1382 1384 1388 1387 1386 1388 1391 1393 1395 1396 1396 1396 1397 1395 1399 1399 1400 1397 1397 1399 1403 1411 1414 1416 1417 1418 1421 1423 1425 1428 1431 1434 1436 1439 1441 1444 1447 1449 1452 1456 1459 1463 1466 1468
1360 1364 1368 1371 1373 1375 1376 1377 1381 1384 1387 1389 1389 1392 1391 1393 1396 1397 1398 1398 1397 1397 1397 1400 1401 1403 1401 1399 1399 1407 1412 1414 1416 1417 1418 1420 1422 1425 1427 1429 1431 1434 1436 1439 1441 1444 1447 1450 1454 1457 1460 1463 1466 1468
1366 1369 1372 1374 1375 1377 1380 1383 1384 1388 1392 1393 1394 1395 1397 1398 1400 1400 1400 1400 1400 1401 1402 1403 1405 1401 1402 1406 1408 1410 1412 1414 1416 1419 1420 1422 1424 1425 1427 1430 1432 1434 1436 1439 1442 1444 1448 1453 1456 1458 1461 1463 1466 1469
1372 1374 1376 1377 1378 1379 1383 1387 1388 1390 1393 1397 1398 1399 1400 1401 1402 1402 1402 1403 1403 1404 1403 1403 1405 1407 1408 1410 1410 1411 1413 1414 1416 1419 1422 1423 1425 1426 1428 1430 1433 1435 1437 1441 1444 1446 1450 1455 1457 1459 1462 1466 1468 1470
1378 1379 1379 1380 1380 1382 1386 1389 1392 1394 1397 1399 1401 1401 1403 1403 1404 1404 1405 1405 1406 1403 1402 1405 1408 1409 1410 1411 1412 1412 1414 1416 1417 1418 1420 1422 1424 1427 1429 1432 1433 1436 1438 1441 1444 1448 1451 1454 1457 1460 1463 1466 1467 1469
1382 1383 1383 1383 1385 1387 1391 1392 1394 1396 1398 1400 1401 1402 1404 1405 1406 1407 1407 1407 1407 1406 1406 1408 1409 1410 1410 1411 1412 1414 1414 1415 1417 1418 1419 1420 1423 1426 1429 1430 1433 1436 1438 1441 1444 1447 1451 1454 1456 1459 1462 1464 1465 1467
1385 1386 1386 1387 1389 1392 1397 1395 1396 1397 1399 1402 1403 1402 1404 1405 1406 1407 1407 1406 1406 1407 1408 1409 1409 1410 1410 1411 1412 1413 1414 1416 1418 1418 1419 1421 1423 1426 1428 1430 1433 1435 1438 1441 1444 1447 1450 1452 1455 1458 1460 1463 1463 1466
1388 1388 1390 1391 1393 1397 1398 1397 1397 1399 1401 1400 1400 1401 1404 1406 1408 1407 1404 1401 1405 1406 1407 1407 1409 1410 1411 1411 1413 1413 1415 1416 1416 1418 1420 1421 1422 1425 1427 1429 1432 1435 1437 1440 1443 1446 1448 1451 1454 1456 1459 1461 1463 1465
1393 1396 1396 1396 1397 1397 1397 1397 1398 1397 1399 1402 1402 1401 1404 1407 1405 1402 1402 1403 1405 1406 1407 1407 1407 1409 1410 1411 1411 1413 1414 1416 1416 1417 1419 1420 1422 1424 1426 1428 1431 1433 1436 1438 1441 1444 1447 1450 1453 1455 1458 1460 1462 1464
1393 1397 1397 1397 1398 1396 1396 1396 1398 1399 1399 1401 1402 1404 1406 1405 1404 1401 1400 1404 1404 1405 1405 1406 1407 1408 1409 1410 1411 1412 1414 1415 1416 1416 1418 1419 1420 1422 1424 1426 1429 1432 1434 1437 1439 1442 1445 1448 1451 1454 1456 1458 1460 1461
1395 1397 1397 1398 1398 1398 1399 1398 1398 1399 1400 1400 1400 1404 1404 1401 1398 1401 1404 1404 1404 1404 1404 1405 1406 1407 1408 1409 1410 1411 1412 1412 1414 1415 1417 1417 1419 1421 1423 1425 1427 1430 1432 1435 1438 1441 1443 1447 1449 1452 1453 1455 1457 1459
1396 1397 1398 1400 1399 1399 1398 1398 1399 1398 1398 1398 1400 1402 1401 1399 1399 1403 1403 1403 1403 1403 1403 1404 1406 1407 1408 1409 1409 1409 1410 1411 1412 1414 1415 1416 1418 1420 1422 1424 1426 1429 1431 1434 1437 1439 1443 1445 1447 1449 1451 1453 1454 1456
1397 1397 1398 1399 1399 1399 1398 1397 1396 1396 1398 1398 1400 1399 1400 1401 1402 1402 1403 1403 1403 1403 1404 1404 1405 1406 1407 1407 1408 1408 1409 1410 1412 1413 1414 1416 1417 1420 1422 1424 1426 1428 1431 1433 1436 1439 1441 1443 1445 1447 1448 1450 1451 1453
1396 1397 1398 1398 1398 1396 1397 1398 1398 1398 1399 1399 1400 1401 1401 1401 1401 1402 1402 1402 1403 1403 1403 1404 1404 1405 1405 1406 1407 1408 1409 1411 1413 1414 1415 1415 1417 1418 1421 1423 1425 1427 1429 1432 1434 1437 1439 1441 1443 1445 1447 1448 1449 1451
1394 1396 1397 1396 1396 1397 1397 1397 1397 1398 1399 1399 1399 1401 1401 1401 1400 1400 1400 1400 1401 1401 1402 1403 1403 1404 1405 1405 1406 1407 1408 1410 1411 1413 1414 1415 1416 1418 1419 1422 1424 1426 1429 1432 1434 1436 1438 1440 1441 1443 1445 1446 1448 1449
1394 1394 1394 1394 1395 1396 1396 1397 1398 1398 1398 1398 1399 1399 1399 1399 1400 1398 1396 1397 1398 1399 1400 1401 1402 1402 1404 1405 1406 1406 1407 1408 1409 1411 1412 1414 1415 1417 1419 1421 1423 1426 1428 1431 1433 1435 1436 1438 1440 1441 1443 1445 1446 1447
1392 1393 1393 1394 1395 1395 1396 1397 1396 1396 1397 1396 1396 1396 1397 1397 1396 1396 1394 1394 1395 1396 1397 1398 1399 1400 1401 1402 1403 1404 1405 1407 1408 1410 1411 1413 1415 1416 1419 1421 1423 1425 1427 1430 1432 1433 1435 1437 1439 1441 1442 1443 1444 1445